{"data":{"norad_id":62660,"intl_designator":"2025-009BD","name":"FLOCK 4G-6","alt_names":[],"object_type":"PAYLOAD","status":"ACTIVE","operator":null,"country":"US","launch_date":"2025-01-14","launch_site_code":"AFWTR","launch_vehicle":null,"mission":null,"orbit_class":"UNKNOWN","rcs_meters":null,"size_class":null,"mass_kg":null,"dimensions":null,"purposes":["earth_obs"],"wikipedia_slug":null,"has_3d_model":false,"image_url":null,"decayed_at":null,"tle_current":{"epoch":"2026-05-25T04:22:28.281792Z","epoch_age_seconds":66215,"freshness":"FRESH","line1":"1 62660U 25009BD  26145.18227178  .00009338  00000+0  33368-3 0  9998","line2":"2 62660  97.3942 226.7318 0004546  71.2529 288.9204 15.29039827132982","mean_motion":15.29039827,"eccentricity":0.0004546,"inclination_deg":97.3942,"raan_deg":226.7318,"arg_perigee_deg":71.2529,"mean_anomaly_deg":288.9204,"bstar":0.00033368,"rev_number":13298,"period_min":94.176749001058,"perigee_km":475.56421740615,"apogee_km":481.79843662907,"semimajor_km":6856.8183270176,"source":"CELESTRAK","updated_at":"2026-05-25T13:38:13.340878Z"}}}